Flag for U.S.A. Weather past 2 weeks in Sedona, Arizona, U.S.A.

Now
54 °F

Mostly cloudy.


Feels Like: 49 °F
Forecast: 48 / 60 °F
Wind: 14 mph from South

Location: Sedona Airport

Current Time: Apr 25, 2015 at 12:20:26 PM

Latest Report: Apr 25, 2015 at 11:55 AM


Visibility: 10 mi

Pressure: 29.91 "Hg

Humidity: 67%

Dew point: 43 °F

Location of SedonaLocation

Historic Weather in Sedona — Graph

°F

Sedona temperature yesterday

Maximum temperature yesterday: 61 °F (at 11:35 AM)
Minimum temperature yesterday: 46 °F (at 6:15 AM)
Average temperature yesterday: 52 °F

Past Weeks' High & Low Weather Summary

 TemperatureHumidityPressure
High79 °F (Apr 13, 12:55 PM)94% (Apr 24, 1:35 PM)30.18 "Hg (Apr 24, 1:35 PM)
Low36 °F (Apr 16, 4:35 AM)8% (Apr 13, 3:15 PM)29.85 "Hg (Apr 15, 5:35 PM)
Average59 °F28%30.00 "Hg
* Reported Apr 10 10:15 AM — Apr 25 10:55 AM, Sedona, Weather by CustomWeather, © 2015

Note: Actual official high and low records may vary slightly from our data, if they occured in-between our weather recording intervals... More about our weather records

Advertising

Sedona weather history for previous 24 hours

 ConditionsComfort  
Time TempWeatherWind HumidityBarometerVisibility
10:55 AM
Sat, Apr 25
52 °FLight rain. Cloudy.10 mph77%29.95 "Hg10 mi
10:35 AM55 °FMore clouds than sun.10 mph67%29.95 "Hg10 mi
10:15 AM54 °FMostly cloudy.12 mph72%29.96 "Hg10 mi
9:55 AM52 °FCloudy.10 mph82%29.96 "Hg10 mi
9:15 AM50 °FMostly cloudy.6 mph82%29.97 "Hg10 mi
8:55 AM50 °FOvercast.8 mph82%29.97 "Hg10 mi
8:15 AM50 °FMostly cloudy.3 mph82%29.97 "Hg10 mi
7:55 AM50 °FMore clouds than sun.9 mph76%29.97 "Hg10 mi
7:35 AM50 °FMostly cloudy.6 mph76%29.96 "Hg10 mi
7:15 AM50 °FOvercast.5 mph76%29.96 "Hg10 mi
6:55 AM48 °FOvercast.5 mph82%29.96 "Hg10 mi
6:35 AM48 °FOvercast.6 mph82%29.95 "Hg10 mi
6:15 AM48 °FOvercast.6 mph82%29.96 "Hg10 mi
5:55 AM50 °FOvercast.6 mph76%29.95 "Hg10 mi
5:35 AM50 °FOvercast.3 mph76%29.95 "Hg10 mi
5:15 AM50 °FMostly cloudy.3 mph76%29.95 "Hg10 mi
4:55 AM50 °FMostly cloudy.3 mph76%29.95 "Hg10 mi
4:35 AM50 °FMostly cloudy.3 mph76%29.94 "Hg10 mi
4:15 AM50 °FMostly cloudy.5 mph76%29.94 "Hg10 mi
3:55 AM50 °FMostly cloudy.No wind76%29.95 "Hg10 mi
3:35 AM50 °FMostly cloudy.No wind76%29.95 "Hg10 mi
3:15 AM50 °FMostly cloudy.3 mph76%29.95 "Hg10 mi
2:55 AM50 °FPartly cloudy.6 mph76%29.95 "Hg10 mi
2:15 AM50 °FPartly cloudy.5 mph76%29.95 "Hg10 mi
1:55 AM50 °FMostly cloudy.6 mph76%29.96 "Hg10 mi
1:35 AM50 °FPassing clouds.No wind76%29.96 "Hg10 mi
1:15 AM50 °FOvercast.No wind76%29.97 "Hg10 mi
12:55 AM50 °FMostly cloudy.5 mph76%29.96 "Hg10 mi
12:35 AM50 °FOvercast.No wind76%29.97 "Hg10 mi
12:15 AM50 °FMostly cloudy.No wind76%29.97 "Hg10 mi
11:55 PM
Fri, Apr 24
50 °FOvercast.6 mph76%29.97 "Hg10 mi
11:35 PM52 °FMostly cloudy.6 mph72%29.97 "Hg10 mi
11:15 PM50 °FPassing clouds.No wind76%29.98 "Hg10 mi
10:55 PM50 °FPassing clouds.5 mph76%29.98 "Hg10 mi
10:35 PM50 °FPassing clouds.8 mph82%29.98 "Hg10 mi
10:15 PM50 °FPassing clouds.8 mph82%29.99 "Hg10 mi
9:55 PM52 °FOvercast.5 mph77%29.99 "Hg10 mi
9:35 PM52 °FPartly cloudy.8 mph77%29.98 "Hg10 mi
9:15 PM50 °FPartly cloudy.9 mph82%29.98 "Hg10 mi
8:15 PM52 °FOvercast.12 mph77%29.96 "Hg10 mi
7:55 PM52 °FMostly cloudy.10 mph77%29.95 "Hg10 mi
7:35 PM52 °FMostly cloudy.6 mph77%29.95 "Hg10 mi
7:15 PM52 °FMostly cloudy.12 mph77%29.95 "Hg10 mi
6:55 PM52 °FCloudy.10 mph82%29.95 "Hg10 mi
5:55 PM52 °FBroken clouds.5 mph82%29.94 "Hg10 mi
5:35 PM52 °FBroken clouds.3 mph82%29.95 "Hg10 mi
5:15 PM52 °FMostly cloudy.10 mph88%29.95 "Hg10 mi
4:35 PM50 °FLight rain. Cloudy.6 mph94%29.95 "Hg7 mi
4:15 PM52 °FThundershowers. Cloudy.7 mph94%29.96 "Hg7 mi
3:55 PM50 °FThundershowers. Cloudy.7 mph88%29.96 "Hg7 mi
3:35 PM50 °FRain. Cloudy.10 mph82%29.96 "Hg5 mi
3:15 PM54 °FCloudy.9 mph72%29.95 "Hg10 mi
2:55 PM55 °FThundershowers. Cloudy.15 mph72%29.95 "Hg10 mi
2:15 PM54 °FMore clouds than sun.10 mph82%29.97 "Hg10 mi
1:55 PM54 °FPartly sunny.13 mph82%29.97 "Hg10 mi
1:35 PM52 °FBroken clouds.6 mph94%29.98 "Hg10 mi
1:15 PM50 °FThundershowers. Cloudy.10 mph88%29.97 "Hg5 mi
12:55 PM55 °FLight rain. Mostly cloudy.14 mph59%29.95 "Hg10 mi
12:35 PM57 °FBroken clouds.14 mph51%29.96 "Hg10 mi
12:15 PM61 °FThunderstorms. Scattered clouds.18 mph42%29.96 "Hg10 mi
Weather by CustomWeather, © 2015

See weather overviewHow to use our weather pages